• In Lithuania
  • List of Countries
  • For 7 days
  • Water Temperature
  • Satellite Maps
  • Weather Map
  • Weather Widgets
  • user-avatar
    Login

    Hourly Weather Neuquén

    Today, 16 August, Thursday

    Time Temperature Precipitation Wind Pressure Humidity
    00:00 +14°C° 0 mm 2 mps 733 mmHg 28%
    01:00 +13°C° 0 mm 2 mps 733 mmHg 29%
    02:00 +13°C° 0 mm 2 mps 733 mmHg 29%
    03:00 +12°C° 0 mm 2 mps 732 mmHg 30%
    04:00 +12°C° 0 mm 2 mps 732 mmHg 31%
    05:00 +12°C° 0 mm 2 mps 732 mmHg 31%
    06:00 +12°C° 0 mm 2 mps 732 mmHg 32%
    07:00 +12°C° 0 mm 2 mps 732 mmHg 32%
    08:00 +15°C° 0 mm 2 mps 733 mmHg 29%
    09:00 +17°C° 0 mm 2 mps 733 mmHg 25%
    10:00 +20°C° 0 mm 3 mps 733 mmHg 21%
    11:00 +20°C° 0 mm 4 mps 733 mmHg 18%
    12:00 +21°C° 0 mm 4 mps 733 mmHg 15%
    13:00 +22°C° 0 mm 5 mps 733 mmHg 13%
    14:00 +22°C° 0 mm 4 mps 733 mmHg 13%
    15:00 +21°C° 0 mm 3 mps 733 mmHg 14%
    16:00 +21°C° 0 mm 2 mps 733 mmHg 14%
    17:00 +19°C° 0 mm 2 mps 733 mmHg 16%
    18:00 +18°C° 0 mm 2 mps 733 mmHg 18%
    19:00 +17°C° 0 mm 2 mps 734 mmHg 21%
    20:00 +16°C° 0 mm 2 mps 734 mmHg 22%
    21:00 +16°C° 0 mm 1 mps 734 mmHg 23%
    22:00 +15°C° 0 mm 1 mps 734 mmHg 25%
    23:00 +15°C° 0 mm 1 mps 734 mmHg 25%

    Tomorrow, 17 August, Friday

    Time Temperature Precipitation Wind Pressure Humidity
    00:00 +15°C° 0 mm 1 mps 734 mmHg 26%
    01:00 +15°C° 0 mm 2 mps 734 mmHg 27%
    02:00 +14°C° 0 mm 2 mps 733 mmHg 29%
    03:00 +14°C° 0 mm 2 mps 733 mmHg 30%
    04:00 +13°C° 0 mm 3 mps 733 mmHg 32%
    05:00 +13°C° 0 mm 3 mps 733 mmHg 34%
    06:00 +14°C° 0 mm 2 mps 733 mmHg 37%
    07:00 +14°C° 0 mm 2 mps 733 mmHg 39%
    08:00 +15°C° 0 mm 2 mps 733 mmHg 38%
    09:00 +16°C° 0 mm 2 mps 733 mmHg 37%
    10:00 +17°C° 0 mm 2 mps 733 mmHg 35%
    11:00 +18°C° 0 mm 2 mps 732 mmHg 33%
    12:00 +19°C° 0 mm 2 mps 732 mmHg 30%
    13:00 +20°C° 0 mm 2 mps 731 mmHg 28%
    14:00 +19°C° 0 mm 3 mps 731 mmHg 31%
    15:00 +19°C° 0 mm 4 mps 731 mmHg 35%
    16:00 +17°C° 0 mm 5 mps 731 mmHg 38%
    17:00 +17°C° 0 mm 5 mps 732 mmHg 42%
    18:00 +16°C° 0 mm 5 mps 732 mmHg 47%
    19:00 +15°C° 0 mm 5 mps 733 mmHg 51%
    20:00 +14°C° 0 mm 5 mps 733 mmHg 49%
    21:00 +13°C° 0 mm 5 mps 733 mmHg 48%
    22:00 +11°C° 0 mm 6 mps 734 mmHg 46%
    23:00 +10°C° 0 mm 7 mps 734 mmHg 46%

    Day after tomorrow, 18 August, Saturday

    Time Temperature Precipitation Wind Pressure Humidity
    00:00 +8°C° 0 mm 9 mps 735 mmHg 45%
    01:00 +7°C° 0 mm 11 mps 736 mmHg 45%
    02:00 +5°C° 0 mm 12 mps 736 mmHg 43%
    03:00 +4°C° 0 mm 12 mps 737 mmHg 40%
    04:00 +3°C° 0 mm 12 mps 738 mmHg 38%
    05:00 +3°C° 0 mm 12 mps 739 mmHg 40%
    06:00 +2°C° 0 mm 11 mps 740 mmHg 42%
    07:00 +2°C° 0 mm 10 mps 740 mmHg 43%
    08:00 +4°C° 0 mm 11 mps 740 mmHg 39%
    09:00 +6°C° 0 mm 11 mps 741 mmHg 36%
    10:00 +8°C° 0 mm 12 mps 741 mmHg 32%
    11:00 +9°C° 0 mm 11 mps 740 mmHg 30%
    12:00 +11°C° 0 mm 11 mps 740 mmHg 28%
    13:00 +12°C° 0 mm 11 mps 739 mmHg 27%
    14:00 +11°C° 0 mm 11 mps 740 mmHg 27%
    15:00 +11°C° 0 mm 11 mps 740 mmHg 27%
    16:00 +11°C° 0 mm 11 mps 740 mmHg 27%
    17:00 +9°C° 0 mm 10 mps 741 mmHg 29%
    18:00 +8°C° 0 mm 9 mps 742 mmHg 32%
    19:00 +7°C° 0 mm 8 mps 743 mmHg 34%
    20:00 +6°C° 0 mm 7 mps 744 mmHg 34%
    21:00 +5°C° 0 mm 6 mps 745 mmHg 35%
    22:00 +5°C° 0 mm 5 mps 746 mmHg 36%
    23:00 +5°C° 0 mm 5 mps 747 mmHg 38%

    19 August, Sunday

    Time Temperature Precipitation Wind Pressure Humidity
    00:00 +4°C° 0 mm 4 mps 747 mmHg 39%
    01:00 +4°C° 0 mm 4 mps 747 mmHg 41%
    02:00 +3°C° 0 mm 3 mps 748 mmHg 43%
    03:00 +3°C° 0 mm 3 mps 748 mmHg 45%
    04:00 +2°C° 0 mm 3 mps 748 mmHg 46%
    05:00 +3°C° 0 mm 2 mps 748 mmHg 47%
    06:00 +3°C° 0 mm 2 mps 749 mmHg 47%
    07:00 +3°C° 0 mm 2 mps 749 mmHg 47%
    08:00 +4°C° 0 mm 2 mps 750 mmHg 42%
    09:00 +7°C° 0 mm 1 mps 750 mmHg 37%
    10:00 +8°C° 0 mm 1 mps 750 mmHg 32%
    11:00 +8°C° 0 mm 1 mps 749 mmHg 29%
    12:00 +8°C° 0 mm 2 mps 749 mmHg 27%
    13:00 +9°C° 0 mm 2 mps 748 mmHg 25%
    14:00 +9°C° 0 mm 2 mps 748 mmHg 24%
    15:00 +9°C° 0 mm 2 mps 747 mmHg 23%
    16:00 +9°C° 0 mm 3 mps 747 mmHg 22%
    17:00 +9°C° 0 mm 3 mps 747 mmHg 24%
    18:00 +8°C° 0 mm 3 mps 747 mmHg 26%
    19:00 +7°C° 0 mm 3 mps 747 mmHg 28%
    20:00 +7°C° 0 mm 3 mps 747 mmHg 29%
    21:00 +6°C° 0 mm 4 mps 747 mmHg 30%
    22:00 +5°C° 0 mm 4 mps 747 mmHg 32%
    23:00 +5°C° 0 mm 4 mps 747 mmHg 33%

    20 August, Monday

    Time Temperature Precipitation Wind Pressure Humidity
    00:00 +3°C° 0 mm 5 mps 746 mmHg 34%
    01:00 +3°C° 0 mm 5 mps 746 mmHg 35%
    02:00 +3°C° 0 mm 5 mps 745 mmHg 35%
    03:00 +2°C° 0 mm 5 mps 744 mmHg 36%
    04:00 +2°C° 0 mm 5 mps 744 mmHg 36%
    05:00 +2°C° 0 mm 5 mps 744 mmHg 36%
    06:00 +2°C° 0 mm 5 mps 743 mmHg 36%
    07:00 +2°C° 0 mm 6 mps 743 mmHg 36%
    08:00 +4°C° 0 mm 7 mps 743 mmHg 32%
    09:00 +6°C° 0 mm 8 mps 742 mmHg 28%
    10:00 +8°C° 0 mm 9 mps 742 mmHg 23%
    11:00 +10°C° 0 mm 9 mps 741 mmHg 22%
    12:00 +11°C° 0 mm 9 mps 740 mmHg 20%
    13:00 +13°C° 0 mm 9 mps 739 mmHg 19%
    14:00 +13°C° 0 mm 9 mps 738 mmHg 19%
    15:00 +13°C° 0 mm 8 mps 738 mmHg 19%
    16:00 +13°C° 0 mm 8 mps 737 mmHg 19%
    17:00 +12°C° 0 mm 7 mps 737 mmHg 21%
    18:00 +11°C° 0 mm 6 mps 737 mmHg 23%
    19:00 +9°C° 0 mm 5 mps 737 mmHg 25%
    20:00 +10°C° 0 mm 4 mps 737 mmHg 26%
    21:00 +8°C° 0 mm 4 mps 736 mmHg 28%
    22:00 +8°C° 0 mm 3 mps 736 mmHg 29%
    23:00 +8°C° 0 mm 3 mps 736 mmHg 31%

    21 August, Tuesday

    Time Temperature Precipitation Wind Pressure Humidity
    00:00 +7°C° 0 mm 2 mps 736 mmHg 32%
    01:00 +7°C° 0 mm 2 mps 735 mmHg 33%
    02:00 +7°C° 0 mm 2 mps 735 mmHg 33%
    03:00 +7°C° 0 mm 1 mps 735 mmHg 34%
    04:00 +7°C° 0 mm 1 mps 735 mmHg 34%
    05:00 +7°C° 0 mm 1 mps 735 mmHg 34%
    06:00 +8°C° 0 mm 1 mps 735 mmHg 34%
    07:00 +8°C° 0 mm 1 mps 735 mmHg 33%
    08:00 +9°C° 0 mm 2 mps 736 mmHg 29%
    09:00 +13°C° 0 mm 2 mps 736 mmHg 25%
    10:00 +15°C° 0 mm 2 mps 736 mmHg 21%
    11:00 +16°C° 0 mm 2 mps 736 mmHg 20%
    12:00 +17°C° 0 mm 3 mps 735 mmHg 18%
    13:00 +19°C° 0 mm 3 mps 735 mmHg 17%
    14:00 +19°C° 0 mm 3 mps 735 mmHg 17%
    15:00 +19°C° 0 mm 3 mps 735 mmHg 18%
    16:00 +19°C° 0 mm 2 mps 735 mmHg 19%
    17:00 +17°C° 0 mm 2 mps 735 mmHg 21%
    18:00 +16°C° 0 mm 2 mps 735 mmHg 23%
    19:00 +15°C° 0 mm 2 mps 735 mmHg 26%
    20:00 +14°C° 0 mm 2 mps 735 mmHg 26%
    21:00 +14°C° 0 mm 2 mps 735 mmHg 27%
    22:00 +14°C° 0 mm 2 mps 735 mmHg 27%
    23:00 +13°C° 0 mm 2 mps 735 mmHg 27%
    Show more